Location: M?digepalle
(16.1753°N, 80.3496°E)
Time: 08:03:33
(UTC+00:00)

Cosmos 1553 Rocket - Pass Details

Date: 29 October 2020
Orbit: 940 x 1009 km, 82.9° (Epoch: 27 November)

Event Time Altitude Azimuth Distance (km) Brightness Sun altitude
Rises 12:18:04 0° 176° (S) 3,727 7.2 -2.8°
Reaches altitude 10° 12:20:38 10° 173° (S) 2,775 6.5 -3.4°
Maximum altitude 12:26:57 66° 92° (E) 1,085 4.1 -4.9°
Drops below altitude 10° 12:33:12 10° 12° (NNE) 2,750 6.1 -6.3°
Sets 12:35:43 0° 9° (N) 3,690 6.8 -6.9°
